DateTimeUTC,F1_A11,F1_S11,BsB_S11,BsG_S11,BsR_S11,BbsB_S11,BbsG_S11,BbsR_S11,BaB_A11,BaG_A11,BaR_A11,Tu_S11,T_S11,Uu_S11,U_S11,P_S11,T1_A11
2021-02-27T10:00:00Z,00000200,21000000,,,,,,,0000.06,0000.37,-000.19,17.0,24.5,,00.0,0637.0,31.0
2021-02-27T10:01:00Z,00000200,21000000,,,,,,,0000.02,-000.28,0000.02,17.0,24.5,,00.0,0637.0,31.0
2021-02-27T10:02:00Z,00000200,21000000,,,,,,,0000.16,-000.07,-000.07,17.0,24.5,,00.0,0637.0,31.0
2021-02-27T10:03:00Z,00000200,61000000,,,,,,,-000.26,-000.13,-000.14,17.0,24.5,,00.0,0637.0,31.1
2021-02-27T10:04:00Z,00000200,41000000,0000.63,0000.08,0000.09,0000.24,-000.02,0000.01,0000.12,-000.17,0000.42,17.3,24.4,,00.0,0637.9,31.0
2021-02-27T10:05:00Z,00000200,01000000,-000.10,0000.10,0000.21,0000.33,0000.15,0000.05,-000.10,0000.23,-000.44,17.3,24.4,,00.0,0637.9,31.0
2021-02-27T10:06:00Z,00000200,01000000,-000.52,-000.22,0000.24,0000.12,-000.05,0000.15,0000.22,-000.04,0000.09,17.3,24.3,,00.0,0638.0,31.0
2021-02-27T10:07:00Z,00000200,01000000,0000.22,-000.01,0000.15,0000.25,0000.11,0000.05,0000.19,0000.24,0000.13,17.3,24.3,,00.0,0638.0,31.0
2021-02-27T10:08:00Z,00000200,01000000,0000.21,0000.04,0000.03,0000.07,0000.06,0000.10,-000.35,-000.27,0000.16,17.3,24.3,,00.0,0637.9,31.0
2021-02-27T10:09:00Z,00000200,01000000,-000.01,-000.03,0000.22,0000.15,0000.22,-000.08,-000.14,-000.05,-000.20,17.3,24.3,,00.0,0637.9,31.0
2021-02-27T10:10:00Z,00000200,01000000,0000.32,0000.03,0000.54,0000.42,0000.05,0000.12,0000.25,0000.16,-000.08,17.2,24.3,,00.0,0637.9,31.0
2021-02-27T10:11:00Z,00000200,01000000,0000.23,0000.25,0000.09,0000.34,-000.13,0000.07,-000.09,-000.04,0000.03,17.3,24.3,,00.0,0637.9,31.0
2021-02-27T10:12:00Z,00000200,01000000,0000.75,-000.04,-000.06,-000.08,-000.13,-000.12,0000.23,0000.13,0000.04,17.3,24.3,,00.0,0637.9,31.0
2021-02-27T10:13:00Z,00000200,01000000,0000.46,-000.07,-000.09,-000.14,0000.02,-000.01,0000.27,0000.09,-000.00,17.2,24.3,,00.0,0637.9,31.0
2021-02-27T10:14:00Z,00000200,01000000,0000.58,0000.10,0000.06,0000.31,-000.04,0000.07,0000.08,-000.02,0000.32,17.2,24.3,,00.0,0637.8,31.0
2021-02-27T10:15:00Z,00000200,01000000,0000.28,-000.21,0000.02,0000.32,-000.04,-000.18,0000.32,0000.31,0000.06,17.2,24.2,,00.0,0637.8,31.0
2021-02-27T10:16:00Z,00000200,01000000,0000.56,-000.03,-000.03,0000.43,0000.02,-000.20,0000.32,0000.71,0000.13,17.3,24.2,,00.0,0637.7,31.0
2021-02-27T10:17:00Z,00000200,01000000,-000.30,-000.13,-000.06,0000.08,0000.05,0000.13,-000.39,-000.54,-000.23,17.3,24.3,,00.0,0637.8,31.0
2021-02-27T10:18:00Z,00000200,01000000,0000.73,-000.00,-000.05,-000.25,0000.03,-000.27,0000.09,-000.14,0000.17,17.3,24.3,,00.0,0637.8,31.0
2021-02-27T10:19:00Z,00000200,01000000,0000.11,-000.04,0000.04,0000.02,0000.17,0000.12,0000.18,0000.16,0000.18,17.3,24.3,,00.0,0637.8,31.0
2021-02-27T10:20:00Z,00000200,01000000,0000.21,0000.26,0000.31,0000.41,0000.07,0000.02,-000.36,0000.26,0000.10,17.3,24.3,,00.0,0637.7,31.0
2021-02-27T10:21:00Z,00000200,01000000,0000.11,-000.11,0000.00,0000.17,0000.13,-000.21,0000.66,-000.10,-000.40,17.3,24.3,,00.0,0637.8,31.0
2021-02-27T10:22:00Z,00000200,01000000,0000.09,-000.08,-000.01,-000.12,0000.11,0000.15,-000.14,0000.45,0000.44,17.3,24.3,,00.0,0637.7,31.0
2021-02-27T10:23:00Z,00000200,01000000,0001.06,-000.01,0000.16,-000.23,0000.22,-000.31,0000.31,-000.31,-000.24,17.3,24.3,,00.0,0637.8,31.0
2021-02-27T10:24:00Z,00000200,01000000,0000.56,0000.06,-000.08,0000.06,0000.09,0000.10,-000.09,0000.34,0000.17,17.3,24.2,,00.0,0637.8,31.0
2021-02-27T10:25:00Z,00000200,01000000,-000.05,0000.03,0000.09,0000.04,-000.07,0000.37,0000.11,-000.29,-000.06,17.3,24.2,,00.0,0637.8,31.0
2021-02-27T10:26:00Z,00000200,01000000,0000.70,-000.10,-000.08,-000.10,0000.16,-000.21,-000.20,0000.24,-000.08,17.2,24.2,,00.0,0637.8,31.0
2021-02-27T10:27:00Z,00000200,01000000,-000.05,0000.02,-000.05,0000.02,0000.03,0000.13,0000.09,0000.15,0000.47,17.2,24.2,,00.0,0637.7,31.0
2021-02-27T10:28:00Z,00000200,01000000,0000.06,-000.01,0000.28,0000.21,0000.19,0000.21,0000.39,-000.30,-000.42,17.2,24.2,,00.0,0637.7,31.0
2021-02-27T10:29:00Z,00000200,01000000,0000.61,0000.11,0000.25,0000.02,0000.08,0000.05,-000.11,0000.15,0000.26,17.2,24.2,,00.0,0637.7,31.0
2021-02-27T10:30:00Z,00000200,01000000,0000.85,0000.01,0000.15,-000.21,0000.12,0000.23,-000.02,0000.06,0000.27,17.2,24.2,,00.0,0637.8,31.0
2021-02-27T10:31:00Z,00000200,01000000,0000.59,-000.02,0000.00,-000.21,-000.04,-000.09,0000.07,-000.16,-000.27,17.3,24.2,,00.0,0637.8,31.0
2021-02-27T10:32:00Z,00000200,01000000,0000.22,0000.06,0000.09,0000.45,0000.01,0000.01,-000.32,0000.04,-000.00,17.4,24.2,,00.0,0637.8,31.0
2021-02-27T10:33:00Z,00000200,01000000,0000.84,-000.03,0000.09,0000.11,0000.07,-000.12,0000.01,0000.36,-000.17,17.4,24.3,,00.0,0637.8,31.0
2021-02-27T10:34:00Z,00000200,01000000,0000.52,0000.04,0000.31,-000.19,0000.11,0000.18,0000.07,-000.29,0000.12,17.5,24.3,,00.0,0637.8,31.0
2021-02-27T10:35:00Z,00000200,01000000,0000.67,-000.18,0000.16,0000.38,-000.02,0000.00,-000.15,0000.04,-000.28,17.4,24.3,,00.0,0637.8,31.0
2021-02-27T10:36:00Z,00000200,01000000,0000.18,-000.00,0000.11,-000.18,-000.05,0000.15,-000.07,-000.29,0000.33,17.4,24.3,,00.0,0637.7,31.0
2021-02-27T10:37:00Z,00000200,01000000,-000.13,0000.13,0000.04,-000.13,0000.05,-000.08,0000.24,0000.32,0000.06,17.4,24.3,,00.0,0637.7,31.0
2021-02-27T10:38:00Z,00000200,01000000,0000.65,0000.09,0000.25,-000.03,-000.03,-000.04,0000.31,0000.31,0000.33,17.4,24.3,,00.0,0637.7,31.0
2021-02-27T10:39:00Z,00000200,01000000,0000.21,-000.18,0000.21,0000.49,0000.04,0000.15,-000.18,-000.09,-000.30,17.4,24.3,,00.0,0637.7,31.0
2021-02-27T10:40:00Z,00000200,01000000,0000.16,0000.02,0000.04,0000.02,0000.08,-000.08,0000.33,0000.26,0000.20,17.4,24.3,,00.0,0637.7,31.0
2021-02-27T10:41:00Z,00000200,01000000,0000.39,-000.16,0000.54,0000.31,-000.20,0000.03,0000.03,0000.02,0000.07,17.3,24.3,,00.0,0637.6,31.0
2021-02-27T10:42:00Z,00000200,01010000,0000.36,0000.17,0000.08,-000.01,0000.16,0000.11,0000.28,0000.14,0000.31,17.3,24.3,,00.0,0637.6,31.0
2021-02-27T10:43:00Z,00000200,01000000,0000.08,0000.14,-000.05,0000.06,0000.02,-000.18,0000.14,0000.15,-000.32,17.3,24.3,,00.0,0637.6,31.0
2021-02-27T10:44:00Z,00000200,01000000,0000.19,-000.25,0000.14,-000.02,0000.07,-000.13,-000.15,-000.21,-000.04,17.3,24.2,,00.0,0637.5,31.0
2021-02-27T10:45:00Z,00000200,01000000,0000.30,-000.00,-000.12,0000.10,-000.03,-000.18,-000.04,0000.32,0000.59,17.4,24.2,,00.0,0637.5,31.0
2021-02-27T10:46:00Z,00000200,01000000,0000.87,-000.03,0000.48,0000.16,0000.02,-000.12,0000.51,0000.57,0000.15,17.4,24.3,,00.0,0637.5,31.1
2021-02-27T10:47:00Z,00000200,01000000,0000.33,-000.14,0000.11,0000.02,-000.01,0000.16,0000.30,-000.03,0000.06,17.4,24.3,,00.0,0637.4,31.0
2021-02-27T10:48:00Z,00000200,01000000,0000.18,-000.02,0000.01,0000.26,0000.26,-000.13,0000.19,-000.03,-000.10,17.4,24.3,,00.0,0637.4,31.0
2021-02-27T10:49:00Z,00000200,01000000,0000.43,0000.19,0000.05,0000.23,0000.43,-000.01,-000.02,0000.24,-000.02,17.5,24.3,,00.0,0637.4,31.0
2021-02-27T10:50:00Z,00000200,01000000,0000.72,0000.22,0000.34,0000.33,0000.07,0000.11,-000.04,-000.18,0000.01,17.4,24.3,,00.0,0637.4,31.0
2021-02-27T10:51:00Z,00000200,01000000,-000.20,0000.05,0000.17,0000.14,0000.06,-000.03,0000.12,0000.32,-000.02,17.4,24.3,,00.0,0637.4,31.0
2021-02-27T10:52:00Z,00000200,01000000,-000.00,-000.12,0000.43,0000.38,0000.20,-000.06,0000.12,-000.17,0000.22,17.4,24.3,,00.0,0637.4,31.0
2021-02-27T10:53:00Z,00000200,01000000,-000.24,0000.07,0000.32,0000.49,0000.01,0000.14,0000.20,0000.31,0000.17,17.4,24.3,,00.0,0637.4,31.0
2021-02-27T10:54:00Z,00000200,01000000,0000.34,-000.03,0000.05,-000.12,-000.11,-000.07,-000.03,0000.13,-000.01,17.4,24.3,,00.0,0637.4,31.0
2021-02-27T10:55:00Z,00000200,01000000,-000.43,-000.15,0000.14,0000.22,0000.05,0000.15,-000.06,0000.02,0000.33,17.4,24.2,,00.0,0637.3,31.0
2021-02-27T10:56:00Z,00000200,01000000,0000.43,0000.07,0000.36,0000.24,-000.00,0000.13,0000.22,0000.17,-000.35,17.3,24.3,,00.0,0637.3,31.0
2021-02-27T10:57:00Z,00000200,41000000,,,,,,,-000.67,-000.55,-000.41,17.3,24.3,,00.0,0637.3,31.0
2021-02-27T10:58:00Z,00000200,61000000,,,,,,,0000.30,0000.06,0000.15,17.0,24.4,,00.0,0636.4,31.0
2021-02-27T10:59:00Z,00000200,21000000,,,,,,,0000.04,0000.15,0000.30,17.0,24.5,,00.0,0636.4,31.0
